EW0956 Weather Reports


time (UTC)temp
C
wind
direction
speed
KPH
gust
KPH
rain 1hr
cm
rain 24hr
cm
rain mn
cm
humidity
%
barometer
mb
20260507093039 2 349 0.0 0.0 0.00 0.00 0.00 68 1013.7
20260507091552 2 348 0.0 0.0 0.00 0.00 0.00 66 1013.9
20260507090033 2 348 0.0 0.0 0.00 0.00 0.00 64 1013.8
20260507084531 3 348 0.0 0.0 0.00 0.00 0.00 62 1014.1
20260507083031 3 16 0.0 1.6 0.00 0.00 0.00 61 1014.1
20260507081545 4 115 0.0 0.0 0.00 0.00 0.00 60 1014.0
20260507080029 4 201 0.0 0.0 0.00 0.00 0.00 59 1014.0
20260507074531 5 213 0.0 0.0 0.00 0.00 0.00 58 1014.2
20260507073024 5 188 0.0 1.6 0.00 0.00 0.00 58 1014.6
20260507071522 5 201 0.0 1.6 0.00 0.00 0.00 58 1014.8
20260507070020 5 120 0.0 3.2 0.00 0.00 0.00 57 1014.9
20260507064516 5 132 0.0 3.2 0.00 0.00 0.00 60 1015.1
20260507063012 4 144 0.0 3.2 0.00 0.00 0.00 63 1015.4
20260507061525 3 136 0.0 0.0 0.00 0.00 0.00 63 1015.7
20260507060009 3 99 0.0 0.0 0.00 0.00 0.00 63 1015.8
20260507054504 3 115 0.0 0.0 0.00 0.00 0.00 64 1015.8
20260507053004 2 117 0.0 1.6 0.00 0.00 0.00 64 1016.0
20260507051600 2 291 0.0 0.0 0.00 0.00 0.00 60 1016.1
20260507044602 3 291 0.0 0.0 0.00 0.00 0.00 60 1016.0
20260507043056 3 291 0.0 0.0 0.00 0.00 0.00 57 1016.1
20260507041556 4 291 0.0 0.0 0.00 0.00 0.00 56 1016.2
20260507040055 5 291 0.0 0.0 0.00 0.00 0.00 56 1016.2
20260507034554 5 291 0.0 0.0 0.00 0.00 0.00 54 1016.3
20260507033054 6 291 0.0 0.0 0.00 0.00 0.00 53 1016.4
20260507031554 6 288 0.0 0.0 0.00 0.00 0.00 51 1016.3
20260507030101 7 288 0.0 0.0 0.00 0.00 0.00 49 1016.4
20260507024554 7 288 0.0 0.0 0.00 0.00 0.00 47 1016.4
20260507023052 7 288 0.0 0.0 0.00 0.00 0.00 46 1016.5
20260507021613 8 288 0.0 0.0 0.00 0.00 0.00 43 1016.4
20260507020100 10 288 0.0 0.0 0.00 0.00 0.00 41 1016.3
20260507014610 10 297 0.0 0.0 0.00 0.00 0.00 40 1016.4
20260507013054 10 285 0.0 0.0 0.00 0.00 0.00 39 1016.3
20260507011550 11 302 0.0 1.6 0.00 0.00 0.00 38 1016.3
20260507010149 11 302 0.0 1.6 0.00 0.00 0.00 37 1016.3
20260507004548 11 304 0.0 3.2 0.00 0.00 0.00 37 1016.3
20260507003047 11 285 0.0 1.6 0.00 0.00 0.00 37 1016.3
20260507001551 11 322 0.0 1.6 0.00 0.00 0.00 38 1016.5
20260507000046 11 319 0.0 0.0 0.00 0.00 0.00 37 1016.7
20260506234546 11 261 0.0 1.6 0.00 0.00 0.00 38 1016.8
20260506233047 11 281 0.0 1.6 0.00 0.00 0.00 37 1016.8
20260506231544 11 293 0.0 4.8 0.00 0.00 0.00 35 1017.0
20260506230044 11 315 0.0 8.0 0.00 0.00 0.00 37 1016.9
20260506224543 11 278 6.4 19.3 0.00 0.00 0.00 36 1017.0
20260506223042 11 295 0.0 1.6 0.00 0.00 0.00 36 1017.0
20260506221545 11 277 0.0 3.2 0.00 0.00 0.00 37 1017.3
20260506220043 11 340 0.0 3.2 0.00 0.00 0.00 37 1017.2
20260506214540 12 315 0.0 32.2 0.00 0.00 0.00 35 1017.4
20260506213038 12 293 8.0 25.7 0.00 0.00 0.00 36 1017.4
20260506211536 12 314 0.0 3.2 0.00 0.00 0.00 38 1017.6
20260506210035 11 316 8.0 24.1 0.00 0.00 0.00 37 1017.8
20260506204534 11 287 16.1 27.4 0.00 0.00 0.00 38 1018.2
20260506203032 11 308 0.0 16.1 0.00 0.00 0.00 40 1018.3
20260506201541 10 318 0.0 25.7 0.00 0.00 0.00 40 1018.3
20260506200029 10 319 0.0 16.1 0.00 0.00 0.00 40 1018.7
20260506194529 10 318 3.2 17.7 0.00 0.00 0.00 40 1018.7
20260506193026 10 332 0.0 3.2 0.00 0.00 0.00 39 1018.8
20260506191523 10 326 6.4 19.3 0.00 0.00 0.00 40 1018.9
20260506190021 9 307 8.0 19.3 0.00 0.00 0.00 42 1019.1
20260506184521 9 299 1.6 4.8 0.00 0.00 0.00 41 1019.2
20260506183022 9 313 0.0 4.8 0.00 0.00 0.00 40 1019.3
20260506181518 9 307 0.0 3.2 0.00 0.00 0.00 43 1019.4
20260506180017 8 318 0.0 3.2 0.00 0.00 0.00 42 1019.4
20260506174514 8 283 0.0 22.5 0.00 0.00 0.00 43 1019.5
20260506173011 8 313 3.2 19.3 0.00 0.00 0.00 45 1019.6
20260506171510 7 299 6.4 17.7 0.00 0.00 0.00 45 1019.7
20260506170011 7 300 0.0 4.8 0.00 0.00 0.00 45 1019.7
20260506164508 7 319 0.0 1.6 0.00 0.00 0.00 47 1019.6
20260506163007 7 302 0.0 3.2 0.00 0.00 0.00 47 1019.6
20260506161505 7 303 0.0 3.2 0.00 0.00 0.00 49 1019.7
20260506160011 7 301 0.0 1.6 0.00 0.00 0.00 50 1019.6
20260506154502 7 302 0.0 3.2 0.00 0.00 0.00 51 1019.6
20260506153002 7 287 0.0 3.2 0.00 0.00 0.00 48 1019.5
20260506151501 7 308 0.0 4.8 0.00 0.00 0.00 48 1019.4
20260506150059 7 328 0.0 3.2 0.00 0.00 0.00 50 1019.5
20260506144600 7 311 0.0 20.9 0.00 0.00 0.00 53 1019.5
20260506143054 7 332 0.0 1.6 0.00 0.00 0.00 52 1019.4
20260506141555 7 326 0.0 1.6 0.00 0.00 0.00 54 1019.4
20260506140056 6 314 0.0 1.6 0.00 0.00 0.00 56 1019.3
20260506134545 6 298 0.0 1.6 0.00 0.00 0.00 57 1019.3
20260506133041 5 293 0.0 1.6 0.00 0.00 0.00 61 1019.3
20260506131541 3 298 0.0 1.6 0.00 0.00 0.00 66 1019.4
20260506130039 3 288 0.0 1.6 0.00 0.00 0.00 68 1019.4
20260506124539 3 297 0.0 1.6 0.00 0.00 0.00 70 1019.1
20260506123036 2 273 0.0 1.6 0.00 0.00 0.00 72 1019.0
20260506121534 2 270 0.0 1.6 0.00 0.00 0.00 72 1018.9
20260506120034 1 238 0.0 1.6 0.00 0.00 0.00 73 1018.5
20260506114530 1 287 0.0 0.0 0.00 0.00 0.00 73 1018.3
20260506113028 1 271 0.0 0.0 0.00 0.00 0.00 72 1018.2
20260506111529 1 291 0.0 0.0 0.00 0.00 0.00 73 1017.9
20260506110027 0 300 0.0 0.0 0.00 0.00 0.00 74 1018.0
20260506104523 0 289 0.0 1.6 0.00 0.00 0.00 74 1017.8
20260506103022 0 280 0.0 0.0 0.00 0.00 0.00 71 1017.5
20260506101522 1 275 0.0 0.0 0.00 0.00 0.00 70 1017.3
20260506100018 1 293 0.0 0.0 0.00 0.00 0.00 70 1017.3
20260506094515 1 288 0.0 0.0 0.00 0.00 0.00 68 1017.4